Follow iAlert.com on twitter @ialertcom
Search For Active Alerts in Your Area  
  Hi Guest:  [ Sign-up / Services ] [ Login ]

Current weather by "City, St" or "zip code"  
 

Advertise Here

Current Conditions: Hammond, Hammond Municipal Airport, LA

Partly Cloudy


79.0 F

Last Updated on Jun 18 2018, 7:55 am CDT
Humidity: 94%
Wind Speed: E 5.8 mph
Barometer 30.10 in
Dewpoint: 77.0 F
Visibility: 10.00 mi
Precip: --
Heat Index: NA
Wind Chill: NA
Current conditions at:

Hammond, Hammond Municipal Airport, LA (KHDC)

Lat: 30.52 Lon: 90.417

Local Radar Image active severe weather and emergency alerts image image weather storm and storm spotter reports image weather observation monitoring service image
Local
Radar
Active
Alerts
Storm Reports Obs
Monitoring

iAlert Weather and Emergency Alert Notification Services:


ialert severe weather and emergency alerts by text message and email ialert daily weather forecast by email and text message service ialert real-time weather-observation monitoring and alert notification service ialert storm report monitoring alert notification

Observation History for Hammond, Hammond Municipal Airport, LA


Time Wind
(mph)
Vis
(mi)
Weather Precip (in) Temperature (F) Relative
Humidity
Wind
Chill
(°F)
Heat
Index
(°F)
Pressure
Air Dwpt altimeter
(in)
sea level
(mb)
7:55 am CDT E 5.8 10.00 Partly Cloudy -- 79.0 77.0 94% NA NA 30.10 M
6:55 am CDT E 4.6 10.00 Fair -- 77.0 75.2 94% NA NA 30.07 M
5:55 am CDT E 6.9 10.00 Partly Cloudy -- 77.0 73.4 89% NA NA 30.06 M
4:55 am CDT E 4.6 10.00 Partly Cloudy -- 77.0 73.4 89% NA NA 30.05 M
3:55 am CDT E 5.8 10.00 Partly Cloudy -- 77.0 73.4 89% NA NA 30.04 M
2:55 am CDT E 5.8 10.00 Mostly Cloudy -- 77.0 73.4 89% NA NA 30.05 M
1:55 am CDT E 5.8 10.00 Partly Cloudy -- 77.0 71.6 83% NA NA 30.06 M
12:55 am CDT E 4.6 10.00 Fair -- 77.0 71.6 83% NA NA 30.08 M
11:55 pm CDT E 3.5 10.00 Fair -- 77.0 71.6 83% NA NA 30.09 M
10:55 pm CDT E 3.5 10.00 Fair -- 77.0 71.6 83% NA NA 30.09 M
9:55 pm CDT N 0.0 10.00 Partly Cloudy -- 79.0 71.6 79% NA NA 30.08 M
9:35 pm CDT SE 3.5 10.00 Mostly Cloudy -- 79.0 71.6 79% NA NA 30.08 M
8:55 pm CDT N 0.0 10.00 Overcast -- 77.0 71.6 83% NA NA 30.08 M
7:55 pm CDT S 8.1 10.00 Overcast -- 81.0 71.6 74% NA 85 30.07 M
6:55 pm CDT S 10.4 10.00 Fair -- 82.0 69.8 66% NA 86 30.05 M
5:55 pm CDT S 11.5 G 17.3 10.00 Mostly Cloudy -- 84.0 69.8 62% NA 88 30.05 M
4:55 pm CDT SE 15.0 10.00 Fair -- 88.0 69.8 55% NA 93 30.05 M
3:55 pm CDT SE 11.5 G 19.6 10.00 Partly Cloudy -- 88.0 71.6 59% NA 95 30.05 M
3:35 pm CDT SE 12.7 G 17.3 10.00 Mostly Cloudy -- 88.0 71.6 59% NA 95 30.06 M
2:55 pm CDT S 11.5 10.00 Mostly Cloudy -- 88.0 71.6 59% NA 95 30.06 M
1:55 pm CDT S 18.4 G 21.9 10.00 Partly Cloudy -- 86.0 71.6 62% NA 92 30.07 M
12:55 pm CDT SE 13.8 G 18.4 10.00 Fair -- 86.0 69.8 59% NA 91 30.08 M
11:55 am CDT SE 12.7 G 18.4 10.00 Partly Cloudy -- 86.0 73.4 66% NA 93 30.08 M
10:55 am CDT SE 18.4 G 23.0 10.00 Mostly Cloudy -- 84.0 73.4 70% NA 91 30.09 M

Regional Weather Observation


New Orleans, New Orleans International Airport, LA (KMSY)

Light Rain Fog/Mist
83.0 F

New Orleans, New Orleans Lakefront Airport, LA (KNEW)

Mostly Cloudy
82.0 F

McComb, McComb / Pike County / John E Lewis Field Airport, MS (KMCB)

A Few Clouds with Haze
80.0 F

Baton Rouge, Baton Rouge Metropolitan, Ryan Field, LA (KBTR)

Fog/Mist
79.0 F

New Roads False River Regional Airport, LA (KHZR)

Thunderstorm in Vicinity
79.0 F

Bogalusa, George R Carr Memorial Air Field, LA (KBXA)

Fair
79.0 F

Advertise Here